Location: *
(13.0000°N, 151.6000°E)
Time: 14:25:07
(UTC+00:00)

NOSS 0 Rocket - Pass Details

Date: 01 April 2020
Orbit: 937 x 953 km, 70.0° (Epoch: 04 June)

Event Time Altitude Azimuth Distance (km) Brightness Sun altitude
Rises 18:42:41 0° 332° (NNW) 3,586 6.8 -16.9°
Reaches altitude 10° 18:45:18 10° 326° (NW) 2,642 6.0 -16.3°
Maximum altitude 18:51:06 46° 255° (WSW) 1,240 4.1 -14.9°
Drops below altitude 10° 18:56:56 10° 183° (S) 2,647 6.2 -13.5°
Sets 18:59:33 0° 177° (S) 3,593 6.9 -12.9°
